H1 CPF 2 NER 2024 7 16 9 198 01 glonass137 H2 1705501 9137 42939 2024 7 16 0 0 0 2024 7 19 23 45 0 900 1 1 0 0 0 1 H9 10 0 60507 0.00000 0 -2818530.771 -20969974.616 -14246615.130 10 0 60507 900.00000 0 -2647674.537 -22560775.330 -11610544.895 10 0 60507 1800.00000 0 -2624215.280 -23822731.260 -8749005.853 10 0 60507 2700.00000 0 -2702973.229 -24720467.322 -5717618.002 10 0 60507 3600.00000 0 -2833348.492 -25230427.541 -2575263.996 10 0 60507 4500.00000 0 -2961700.881 -25341778.851 617055.943 10 0 60507 5400.00000 0 -3033859.422 -25056800.476 3797407.754 10 0 60507 6300.00000 0 -2997655.029 -24390743.687 6904122.766 10 0 60507 7200.00000 0 -2805369.041 -23371168.849 9876989.172 10 0 60507 8100.00000 0 -2415994.203 -22036788.401 12658412.812 10 0 60507 9000.00000 0 -1797212.680 -20435864.832 15194525.257 10 0 60507 9900.00000 0 -927007.822 -18624231.010 17436218.336 10 0 60507 10800.00000 0 205158.280 -16663015.564 19340085.924 10 0 60507 11700.00000 0 1597651.251 -14616167.881 20869255.758 10 0 60507 12600.00000 0 3236484.623 -12547885.258 21994096.134 10 0 60507 13500.00000 0 5095662.304 -10520048.436 22692784.746 10 0 60507 14400.00000 0 7138030.399 -8589771.162 22951729.384 10 0 60507 15300.00000 0 9316604.474 -6807164.597 22765832.771 10 0 60507 16200.00000 0 11576318.846 -5213408.462 22138596.481 10 0 60507 17100.00000 0 13856127.020 -3839208.252 21082061.605 10 0 60507 18000.00000 0 16091367.681 -2703702.049 19616586.608 10 0 60507 18900.00000 0 18216299.426 -1813862.002 17770465.638 10 0 60507 19800.00000 0 20166700.001 -1164415.259 15579393.439 10 0 60507 20700.00000 0 21882422.505 -738287.590 13085785.894 10 0 60507 21600.00000 0 23309802.286 -507551.185 10337968.087 10 0 60507 22500.00000 0 24403813.826 -434836.902 7389244.530 10 0 60507 23400.00000 0 25129886.777 -475151.529 4296868.828 10 0 60507 24300.00000 0 25465304.188 -578023.198 1120932.401 10 0 60507 25200.00000 0 25400123.176 -689883.910 -2076806.142 10 0 60507 26100.00000 0 24937578.277 -756587.603 -5234127.761 10 0 60507 27000.00000 0 24093949.510 -725956.081 -8289571.633 10 0 60507 27900.00000 0 22897899.956 -550243.655 -11183641.006 10 0 60507 28800.00000 0 21389310.230 -188414.513 -13859971.628 10 0 60507 29700.00000 0 19617658.729 391865.238 -16266438.901 10 0 60507 30600.00000 0 17640015.899 1212606.813 -18356181.269 10 0 60507 31500.00000 0 15518737.150 2284319.369 -20088519.092 10 0 60507 32400.00000 0 13318951.770 3605323.181 -21429750.659 10 0 60507 33300.00000 0 11105953.591 5161585.552 -22353809.648 10 0 60507 34200.00000 0 8942603.126 6927087.327 -22842771.272 10 0 60507 35100.00000 0 6886850.037 8864705.326 -22887197.554 10 0 60507 36000.00000 0 4989479.333 10927574.208 -22486315.455 10 0 60507 36900.00000 0 3292175.051 13060870.981 -21648024.889 10 0 60507 37800.00000 0 1825981.346 15203947.647 -20388737.055 10 0 60507 38700.00000 0 610224.052 17292722.861 -18733046.716 10 0 60507 39600.00000 0 -348063.806 19262232.590 -16713245.340 10 0 60507 40500.00000 0 -1054190.375 21049233.222 -14368684.994 10 0 60507 41400.00000 0 -1525327.221 22594748.398 -11745005.787 10 0 60507 42300.00000 0 -1789527.554 23846453.207 -8893242.271 10 0 60507 43200.00000 0 -1884283.709 24760796.401 -5868826.574 10 0 60507 44100.00000 0 -1854686.384 25304772.260 -2730507.973 10 0 60507 45000.00000 0 -1751264.765 25457268.557 460789.730 10 0 60507 45900.00000 0 -1627599.859 25209934.931 3643150.569 10 0 60507 46800.00000 0 -1537812.623 24567536.106 6754865.436 10 0 60507 47700.00000 0 -1534033.494 23547775.961 9735624.438 10 0 60507 48600.00000 0 -1663960.341 22180600.557 12527679.689 10 0 60507 49500.00000 0 -1968607.917 20507009.757 15076956.450 10 0 60507 50400.00000 0 -2480343.602 18577427.423 17334091.688 10 0 60507 51300.00000 0 -3221292.081 16449698.168 19255380.800 10 0 60507 52200.00000 0 -4202176.122 14186793.802 20803615.156 10 0 60507 53100.00000 0 -5421642.476 11854324.355 21948795.199 10 0 60507 54000.00000 0 -6866101.802 9517956.222 22668706.258 10 0 60507 54900.00000 0 -8510090.395 7240843.594 22949346.660 10 0 60507 55800.00000 0 -10317139.924 5081178.668 22785200.273 10 0 60507 56700.00000 0 -12241120.591 3089961.107 22179348.346 10 0 60507 57600.00000 0 -14228003.454 1309078.298 21143418.128 10 0 60507 58500.00000 0 -16217970.314 -230224.735 19697368.604 10 0 60507 59400.00000 0 -18147784.872 -1508422.784 17869116.489 10 0 60507 60300.00000 0 -19953327.705 -2518290.868 15694008.455 10 0 60507 61200.00000 0 -21572190.235 -3264963.563 13214148.524 10 0 60507 62100.00000 0 -22946219.855 -3765470.902 10477592.339 10 0 60507 63000.00000 0 -24023909.750 -4047770.304 7537422.834 10 0 60507 63900.00000 0 -24762532.817 -4149315.273 4450724.465 10 0 60507 64800.00000 0 -25129929.292 -4115221.331 1277475.468 10 0 60507 65700.00000 0 -25105871.874 -3996106.955 -1920620.330 10 0 60507 66600.00000 0 -24682949.615 -3845701.419 -5081339.003 10 0 60507 67500.00000 0 -23866932.132 -3718321.702 -8143155.140 10 0 60507 68400.00000 0 -22676597.626 -3666326.457 -11046448.879 10 0 60507 69300.00000 0 -21143031.090 -3737656.314 -13734676.725 10 0 60507 70200.00000 0 -19308421.601 -3973566.178 -16155482.240 10 0 60507 71100.00000 0 -17224409.020 -4406647.064 -18261724.027 10 0 60507 72000.00000 0 -14950049.526 -5059222.630 -20012400.174 10 0 60507 72900.00000 0 -12549485.581 -5942189.469 -21373450.678 10 0 60507 73800.00000 0 -10089418.237 -7054351.251 -22318422.031 10 0 60507 74700.00000 0 -7636487.889 -8382275.682 -22828981.045 10 0 60507 75600.00000 0 -5254673.120 -9900680.957 -22895268.226 10 0 60507 76500.00000 0 -3002816.179 -11573335.928 -22516084.217 10 0 60507 77400.00000 0 -932378.005 -13354436.437 -21698906.220 10 0 60507 78300.00000 0 914484.268 -15190400.181 -20459734.600 10 0 60507 79200.00000 0 2506438.266 -17022004.857 -18822773.191 10 0 60507 80100.00000 0 3824033.714 -18786779.939 -16819950.036 10 0 60507 81000.00000 0 4860253.786 -20421551.751 -14490288.314 10 0 60507 81900.00000 0 5620539.419 -21865035.208 -11879140.109 10 0 60507 82800.00000 0 6122287.680 -23060363.611 -9037298.335 10 0 60507 83700.00000 0 6393847.397 -23957450.583 -6020004.458 10 0 60507 84600.00000 0 6473056.290 -24515085.377 -2885871.653 10 0 60507 85500.00000 0 6405382.975 -24702674.078 304255.311 10 0 60508 0.00000 0 6241753.669 -24501554.176 3488480.763 10 0 60508 900.00000 0 6036156.278 -23905827.798 6605058.036 10 0 60508 1800.00000 0 5843123.996 -22922679.561 9593580.995 10 0 60508 2700.00000 0 5715204.668 -21572165.925 12396149.963 10 0 60508 3600.00000 0 5700523.029 -19886485.361 14958485.613 10 0 60508 4500.00000 0 5840538.386 -17908759.966 17230971.549 10 0 60508 5400.00000 0 6168092.014 -15691379.260 19169605.949 10 0 60508 6300.00000 0 6705826.257 -13293974.733 20736844.816 10 0 60508 7200.00000 0 7465041.771 -10781108.739 21902321.483 10 0 60508 8100.00000 0 8445041.119 -8219772.792 22643429.402 10 0 60508 9000.00000 0 9632986.872 -5676797.901 22945757.665 10 0 60508 9900.00000 0 11004281.119 -3216283.106 22803371.302 10 0 60508 10800.00000 0 12523451.847 -897147.504 22218931.036 10 0 60508 11700.00000 0 14145510.706 1229093.953 21203649.898 10 0 60508 12600.00000 0 15817727.169 3120239.659 19777086.850 10 0 60508 13500.00000 0 17481746.592 4744917.104 17966780.464 10 0 60508 14400.00000 0 19075965.204 6083642.723 15807728.468 10 0 60508 15300.00000 0 20538063.843 7129382.041 13341721.945 10 0 60508 16200.00000 0 21807595.086 7887586.902 10616545.796 10 0 60508 17100.00000 0 22828515.622 8375708.299 7685059.836 10 0 60508 18000.00000 0 23551557.272 8622205.304 4604177.549 10 0 60508 18900.00000 0 23936336.309 8665091.909 1433761.905 10 0 60508 19800.00000 0 23953111.243 8550083.312 -1764540.370 10 0 60508 20700.00000 0 23584113.686 8328420.439 -4928502.963 10 0 60508 21600.00000 0 22824394.774 8054465.438 -7996538.480 10 0 60508 22500.00000 0 21682150.047 7783170.920 -10908906.574 10 0 60508 23400.00000 0 20178507.836 7567531.325 -13608887.075 10 0 60508 24300.00000 0 18346789.058 7456125.682 -16043894.155 10 0 60508 25200.00000 0 16231268.821 7490857.202 -18166508.880 10 0 60508 26100.00000 0 13885491.505 7704986.660 -19935409.209 10 0 60508 27000.00000 0 11370209.832 8121543.928 -21316178.827 10 0 60508 27900.00000 0 8751034.333 8752185.765 -22281978.847 10 0 60508 28800.00000 0 6095891.680 9596548.806 -22814069.309 10 0 60508 29700.00000 0 3472398.174 10642125.566 -22902170.595 10 0 60508 30600.00000 0 945257.936 11864668.987 -22544658.148 10 0 60508 31500.00000 0 -1426205.900 13229108.598 -21748587.212 10 0 60508 32400.00000 0 -3590284.731 14690939.748 -20529547.675 10 0 60508 33300.00000 0 -5504790.531 16198027.396 -18911352.354 10 0 60508 34200.00000 0 -7138556.212 17692748.480 -16925565.315 10 0 60508 35100.00000 0 -8472469.279 19114382.690 -14610879.840 10 0 60508 36000.00000 0 -9499997.472 20401651.041 -12012358.560 10 0 60508 36900.00000 0 -10227186.462 21495295.517 -9180550.934 10 0 60508 37800.00000 0 -10672131.849 22340591.344 -6170505.617 10 0 60508 38700.00000 0 -10863949.749 22889686.447 -3040697.254 10 0 60508 39600.00000 0 -10841291.194 23103669.958 148111.071 10 0 60508 40500.00000 0 -10650464.607 22954283.151 3334047.364 10 0 60508 41400.00000 0 -10343246.834 22425201.300 6455329.196 10 0 60508 42300.00000 0 -9974475.992 21512833.025 9451457.769 10 0 60508 43200.00000 0 -9599528.285 20226603.908 12264384.648 10 0 60508 44100.00000 0 -9271785.358 18588712.708 14839628.929 10 0 60508 45000.00000 0 -9040198.895 16633370.366 17127323.797 10 0 60508 45900.00000 0 -8947054.740 14405553.338 19083173.045 10 0 60508 46800.00000 0 -9026030.251 11959322.698 20669299.992 10 0 60508 47700.00000 0 -9300626.249 9355778.142 21854973.351 10 0 60508 48600.00000 0 -9783039.265 6660730.882 22617196.913 10 0 60508 49500.00000 0 -10473521.546 3942190.647 22941152.453 10 0 60508 50400.00000 0 -11360256.134 1267769.652 22820487.683 10 0 60508 51300.00000 0 -12419753.116 -1297890.359 22257443.881 10 0 60508 52200.00000 0 -13617751.641 -3695562.773 21262820.419 10 0 60508 53100.00000 0 -14910591.376 -5873652.293 19855776.244 10 0 60508 54000.00000 0 -16246997.488 -7790091.713 18063471.206 10 0 60508 54900.00000 0 -17570205.908 -9413841.189 15920552.905 10 0 60508 55800.00000 0 -18820341.018 -10725928.048 13468497.744 10 0 60508 56700.00000 0 -19936946.976 -11719984.017 10754817.616 10 0 60508 57600.00000 0 -20861566.807 -12402257.479 7832146.487 10 0 60508 58500.00000 0 -21540260.784 -12791100.238 4757223.770 10 0 60508 59400.00000 0 -21925957.567 -12915950.412 1589793.768 10 0 60508 60300.00000 0 -21980538.049 -12815854.388 -1608557.495 10 0 60508 61200.00000 0 -21676562.708 -12537590.552 -4775605.076 10 0 60508 62100.00000 0 -20998568.067 -12133474.589 -7849703.407 10 0 60508 63000.00000 0 -19943875.953 -11658940.005 -10770995.464 10 0 60508 63900.00000 0 -18522879.891 -11169997.269 -13482588.115 10 0 60508 64800.00000 0 -16758795.202 -10720680.292 -15931669.669 10 0 60508 65700.00000 0 -14686882.208 -10360589.554 -18070546.874 10 0 60508 66600.00000 0 -12353174.439 -10132637.016 -19857580.352 10 0 60508 67500.00000 0 -9812764.682 -10071089.222 -21257999.729 10 0 60508 68400.00000 0 -7127720.449 -10199992.126 -22244582.369 10 0 60508 69300.00000 0 -4364715.978 -10532044.753 -22798182.480 10 0 60508 70200.00000 0 -1592479.659 -11067969.547 -22908100.574 10 0 60508 71100.00000 0 1120836.691 -11796406.049 -22572286.488 10 0 60508 72000.00000 0 3710257.231 -12694332.275 -21797372.517 10 0 60508 72900.00000 0 6116442.301 -13727995.764 -20598536.566 10 0 60508 73800.00000 0 8287907.691 -14854314.778 -18999198.504 10 0 60508 74700.00000 0 10182911.454 -16022690.214 -17030556.127 10 0 60508 75600.00000 0 11770931.008 -17177151.582 -14730970.236 10 0 60508 76500.00000 0 13033670.456 -18258746.360 -12145211.180 10 0 60508 77400.00000 0 13965557.939 -19208071.818 -9323581.944 10 0 60508 78300.00000 0 14573714.209 -19967842.537 -6320935.221 10 0 60508 79200.00000 0 14877395.845 -20485385.423 -3195603.909 10 0 60508 80100.00000 0 14906938.488 -20714957.190 -8266.199 10 0 60508 81000.00000 0 14702246.349 -20619786.884 3179232.437 10 0 60508 81900.00000 0 14310893.128 -20173757.701 6305077.319 10 0 60508 82800.00000 0 13785915.491 -19362657.610 9308679.411 10 0 60508 83700.00000 0 13183392.869 -18184946.417 12131843.914 10 0 60508 84600.00000 0 12559915.918 -16652007.165 14719890.397 10 0 60508 85500.00000 0 11970050.262 -14787871.227 17022703.309 10 0 60509 0.00000 0 11463902.046 -12628428.442 18995693.203 10 0 60509 900.00000 0 11084886.927 -10220153.404 20600652.014 10 0 60509 1800.00000 0 10867796.383 -7618403.008 21806484.215 10 0 60509 2700.00000 0 10837241.141 -4885351.006 22589804.203 10 0 60509 3600.00000 0 11006537.415 -2087646.743 22935386.384 10 0 60509 4500.00000 0 11377082.366 706107.461 22836460.849 10 0 60509 5400.00000 0 11938245.349 3427957.140 22294848.895 10 0 60509 6300.00000 0 12667780.177 6013168.519 21320935.503 10 0 60509 7200.00000 0 13532742.142 8402668.067 19933478.710 10 0 60509 8100.00000 0 14490872.540 10545248.708 18159258.591 10 0 60509 9000.00000 0 15492393.940 12399451.972 16032571.436 10 0 60509 9900.00000 0 16482142.009 13935048.275 13594577.630 10 0 60509 10800.00000 0 17401945.312 15134053.927 10892514.557 10 0 60509 11700.00000 0 18193153.584 15991242.459 7978788.652 10 0 60509 12600.00000 0 18799208.159 16514128.756 4909963.393 10 0 60509 13500.00000 0 19168145.863 16722426.574 1745662.371 10 0 60509 14400.00000 0 19254929.936 16647002.230 -1452591.302 10 0 60509 15300.00000 0 19023508.321 16328368.670 -4622576.352 10 0 60509 16200.00000 0 18448510.912 15814783.833 -7702591.393 10 0 60509 17100.00000 0 17516512.362 15160034.211 -10632665.055 10 0 60509 18000.00000 0 16226805.435 14420998.139 -13355733.504 10 0 60509 18900.00000 0 14591650.677 13655092.867 -15818761.319 10 0 60509 19800.00000 0 12635990.417 12917714.423 -17973782.933 10 0 60509 20700.00000 0 10396638.027 12259779.590 -19778843.494 10 0 60509 21600.00000 0 7920975.596 11725474.821 -21198820.303 10 0 60509 22500.00000 0 5265214.046 11350307.862 -22206108.571 10 0 60509 23400.00000 0 2492288.167 11159544.843 -22781158.129 10 0 60509 24300.00000 0 -330525.649 11167098.892 -22912850.880 10 0 60509 25200.00000 0 -3134169.749 11374917.051 -22598712.073 10 0 60509 26100.00000 0 -5850437.033 11772890.969 -21844951.752 10 0 60509 27000.00000 0 -8414564.926 12339294.568 -20666336.157 10 0 60509 27900.00000 0 -10767684.019 13041729.608 -19085892.100 10 0 60509 28800.00000 0 -12859020.127 13838538.552 -17134450.580 10 0 60509 29700.00000 0 -14647759.072 14680624.503 -14850038.976 10 0 60509 30600.00000 0 -16104497.763 15513600.854 -12277134.054 10 0 60509 31500.00000 0 -17212222.563 16280179.432 -9465790.729 10 0 60509 32400.00000 0 -17966775.837 16922696.035 -6470663.884 10 0 60509 33300.00000 0 -18376793.073 17385666.529 -3349942.626 10 0 60509 34200.00000 0 -18463115.121 17618265.529 -164218.047 10 0 60509 35100.00000 0 -18257702.085 17576623.143 3024693.244 10 0 60509 36000.00000 0 -17802096.114 17225843.004 6154946.808 10 0 60509 36900.00000 0 -17145499.128 16541656.710 9165865.964 10 0 60509 37800.00000 0 -16342547.264 15511645.159 11999112.253 10 0 60509 38700.00000 0 -15450876.286 14135975.442 14599808.496 10 0 60509 39600.00000 0 -14528580.496 12427622.234 16917593.207 10 0 60509 40500.00000 0 -13631671.780 10412063.988 18907586.803 10 0 60509 41400.00000 0 -12811645.031 8126465.960 20531251.809 10 0 60509 42300.00000 0 -12113251.481 5618383.167 21757131.391 10 0 60509 43200.00000 0 -11572572.617 2944036.001 22561452.877 10 0 60509 44100.00000 0 -11215474.762 166228.658 22928585.361 10 0 60509 45000.00000 0 -11056508.629 -2648004.856 22851343.033 10 0 60509 45900.00000 0 -11098299.760 -5429931.274 22331128.534 10 0 60509 46800.00000 0 -11331455.558 -8111721.960 21377913.357 10 0 60509 47700.00000 0 -11734993.291 -10629023.711 20010055.044 10 0 60509 48600.00000 0 -12277271.889 -12923391.131 18253953.809 10 0 60509 49500.00000 0 -12917389.405 -14944480.566 16143554.024 10 0 60509 50400.00000 0 -13606988.396 -16651914.966 13719698.934 10 0 60509 51300.00000 0 -14292394.216 -18016742.306 11029349.810 10 0 60509 52200.00000 0 -14916996.833 -19022426.718 8124683.507 10 0 60509 53100.00000 0 -15423776.014 -19665330.671 5062085.110 10 0 60509 54000.00000 0 -15757863.182 -19954667.742 1901054.705 10 0 60509 54900.00000 0 -15869031.081 -19911927.715 -1296950.605 10 0 60509 55800.00000 0 -15714004.967 -19569798.091 -4469716.564 10 0 60509 56700.00000 0 -15258496.190 -18970627.556 -7555489.518 10 0 60509 57600.00000 0 -14478870.502 -18164496.568 -10494187.447 10 0 60509 58500.00000 0 -13363378.822 -17206977.141 -13228579.565 10 0 60509 59400.00000 0 -11912896.702 -16156677.226 -15705410.444 10 0 60509 60300.00000 0 -10141139.647 -15072674.343 -17876445.760 10 0 60509 61200.00000 0 -8074343.824 -14011947.796 -19699418.461 10 0 60509 62100.00000 0 -5750424.387 -13026918.711 -21138856.375 10 0 60509 63000.00000 0 -3217645.869 -12163202.342 -22166774.886 10 0 60509 63900.00000 0 -532859.736 -11457667.831 -22763221.169 10 0 60509 64800.00000 0 2240617.608 -10936887.245 -22916659.611 10 0 60509 65700.00000 0 5035398.042 -10616038.993 -22624191.322 10 0 60509 66600.00000 0 7782586.538 -10498311.238 -21891603.959 10 0 60509 67500.00000 0 10414410.936 -10574829.633 -20733251.418 10 0 60509 68400.00000 0 12866807.519 -10825111.465 -19171766.282 10 0 60509 69300.00000 0 15081855.186 -11218025.979 -17237611.117 10 0 60509 70200.00000 0 17009957.562 -11713219.362 -14968477.822 10 0 60509 71100.00000 0 18611683.105 -12262943.257 -12408547.110 10 0 60509 72000.00000 0 19859187.629 -12814208.779 -9607622.966 10 0 60509 72900.00000 0 20737161.309 -13311174.365 -6620159.280 10 0 60509 73800.00000 0 21243262.219 -13697666.070 -3504197.918 10 0 60509 74700.00000 0 21388019.956 -13919723.515 -320239.267 10 0 60509 75600.00000 0 21194215.130 -13928063.750 2869932.577 10 0 60509 76500.00000 0 20695762.370 -13680359.000 6004446.967 10 0 60509 77400.00000 0 19936145.147 -13143232.173 9022542.921 10 0 60509 78300.00000 0 18966469.237 -12293886.126 11865741.346 10 0 60509 79200.00000 0 17843217.299 -11121298.068 14478970.940 10 0 60509 80100.00000 0 16625799.180 -9626928.736 16811626.484 10 0 60509 81000.00000 0 15374000.686 -7824916.248 18818539.839 10 0 60509 81900.00000 0 14145437.370 -5741745.817 20460845.783 10 0 60509 82800.00000 0 12993119.403 -3415408.185 21706726.863 10 0 60509 83700.00000 0 11963228.623 -894080.585 22532023.824 10 0 60509 84600.00000 0 11093199.949 1765616.429 22920700.569 10 0 60509 85500.00000 0 10410186.645 4500715.548 22865155.161 10 0 60510 0.00000 0 9929973.056 7244267.236 22366371.123 10 0 60510 900.00000 0 9656379.798 9927877.415 21433905.545 10 0 60510 1800.00000 0 9581186.857 12484311.025 20085714.427 10 0 60510 2700.00000 0 9684577.297 14850059.748 18347816.823 10 0 60510 3600.00000 0 9936084.147 16967764.710 16253803.684 10 0 60510 4500.00000 0 10296001.118 18788395.552 13844199.431 10 0 60510 5400.00000 0 10717198.527 20273095.238 11165687.354 10 0 60510 6300.00000 0 11147268.539 21394613.625 8270212.696 10 0 60510 7200.00000 0 11530909.542 22138269.543 5213979.965 10 0 60510 8100.00000 0 11812448.917 22502400.682 2056363.410 10 0 60510 9000.00000 0 11938397.114 22498281.928 -1141248.289 10 0 60510 9900.00000 0 11859924.099 22149515.199 -4316650.356 10 0 60510 10800.00000 0 11535152.083 21490916.258 -7408039.299 10 0 60510 11700.00000 0 10931165.983 20566945.458 -10355224.790 10 0 60510 12600.00000 0 10025654.758 19429748.897 -13100811.297 10 0 60510 13500.00000 0 8808112.440 18136893.178 -15591325.416 10 0 60510 14400.00000 0 7280546.378 16748890.033 -17778265.920 10 0 60510 15300.00000 0 5457661.190 15326616.041 -19619055.229 10 0 60510 16200.00000 0 3366509.329 13928736.954 -21077873.209 10 0 60510 17100.00000 0 1045621.773 12609245.792 -22126356.775 10 0 60510 18000.00000 0 -1456345.494 11415218.713 -22744151.626 10 0 60510 18900.00000 0 -4082393.185 10384883.183 -22919305.607 10 0 60510 19800.00000 0 -6769314.496 9546079.363 -22648496.416 10 0 60510 20700.00000 0 -9450096.092 8915178.815 -21937089.722 10 0 60510 21600.00000 0 -12056484.352 8496504.995 -20799027.103 10 0 60510 22500.00000 0 -14521610.199 8282278.731 -19256546.547 10 0 60510 23400.00000 0 -16782563.410 8253089.599 -17339741.425 10 0 60510 24300.00000 0 -18782809.645 8378871.924 -15085967.030 10 0 60510 25200.00000 0 -20474350.095 8620342.881 -12539106.608 10 0 60510 26100.00000 0 -21819534.508 8930840.738 -9748711.573 10 0 60510 27000.00000 0 -22792453.008 9258484.548 -6769033.003 10 0 60510 27900.00000 0 -23379849.826 9548563.167 -3657963.588 10 0 60510 28800.00000 0 -23581522.109 9746051.986 -475910.958 10 0 60510 29700.00000 0 -23410188.643 9798150.572 2715375.457 10 0 60510 30600.00000 0 -22890835.424 9656733.768 5854001.067 10 0 60510 31500.00000 0 -22059566.860 9280612.624 8879122.969 10 0 60510 32400.00000 0 -20962011.919 8637509.753 11732123.928 10 0 60510 33300.00000 0 -19651352.827 7705665.851 14357741.084 10 0 60510 34200.00000 0 -18186059.423 6475009.640 16705128.078 10 0 60510 35100.00000 0 -16627424.131 4947841.822 18728830.776 10 0 60510 36000.00000 0 -15037000.415 3139003.764 20389658.651 10 0 60510 36900.00000 0 -13474051.250 1075523.051 21655435.902 10 0 60510 37800.00000 0 -11993113.381 -1204250.533 22501618.715 10 0 60510 38700.00000 0 -10641778.107 -3651984.045 22911767.535 10 0 60510 39600.00000 0 -9458780.272 -6211121.435 22877865.717 10 0 60510 40500.00000 0 -8472474.364 -8818993.335 22400478.600 10 0 60510 41400.00000 0 -7699760.634 -11409190.844 21488749.760 10 0 60510 42300.00000 0 -7145505.726 -13914106.511 20160233.928 10 0 60510 43200.00000 0 -6802481.875 -16267538.570 18440568.937 10 0 60510 44100.00000 0 -6651827.342 -18407251.430 16362991.853 10 0 60510 45000.00000 0 -6664009.106 -20277386.718 13967707.414 10 0 60510 45900.00000 0 -6800247.742 -21830624.835 11301119.691 10 0 60510 46800.00000 0 -7014344.925 -23030006.858 8414940.719 10 0 60510 47700.00000 0 -7254836.749 -23850340.227 5365192.505 10 0 60510 48600.00000 0 -7467381.923 -24279128.820 2211121.245 10 0 60510 49500.00000 0 -7597283.506 -24316987.681 -985955.303 10 0 60510 50400.00000 0 -7592036.768 -23977524.296 -4163844.594 10 0 60510 51300.00000 0 -7403794.147 -23286690.884 -7260696.291 10 0 60510 52200.00000 0 -6991641.516 -22281634.650 -10216214.953 10 0 60510 53100.00000 0 -6323587.715 -21009094.411 -12972843.655 10 0 60510 54000.00000 0 -5378181.393 -19523411.400 -15476894.439 10 0 60510 54900.00000 0 -4145685.018 -17884238.527 -17679602.567 10 0 60510 55800.00000 0 -2628754.817 -16154045.208 -19538083.176 10 0 60510 56700.00000 0 -842596.474 -14395523.461 -21016171.139 10 0 60510 57600.00000 0 1185411.255 -12669004.923 -22085127.480 10 0 60510 58500.00000 0 3416610.188 -11029997.790 -22724198.546 10 0 60510 59400.00000 0 5802436.928 -9526947.185 -22921017.246 10 0 60510 60300.00000 0 8286220.650 -8199312.756 -22671838.939 10 0 60510 61200.00000 0 10805329.614 -7076043.539 -21981607.862 10 0 60510 62100.00000 0 13293577.028 -6174513.107 -20863853.336 10 0 60510 63000.00000 0 15683786.034 -5499958.388 -19340418.320 10 0 60510 63900.00000 0 17910406.965 -5045444.195 -17441026.081 10 0 60510 64800.00000 0 19912078.015 -4792353.245 -15202693.913 10 0 60510 65700.00000 0 21634022.855 -4711379.333 -12669005.697 10 0 60510 66600.00000 0 23030185.658 -4763980.145 -9889257.882 10 0 60510 67500.00000 0 24065015.122 -4904226.944 -6917495.888 10 0 60510 68400.00000 0 24714823.858 -5080971.747 -3811459.979 10 0 60510 69300.00000 0 24968667.330 -5240239.443 -631461.482 10 0 60510 70200.00000 0 24828706.804 -5327742.992 2560788.546 10 0 60510 71100.00000 0 24310042.282 -5291414.948 5703375.314 10 0 60510 72000.00000 0 23440023.631 -5083848.069 8735377.627 10 0 60510 72900.00000 0 22257069.760 -4664541.862 11598043.497 10 0 60510 73800.00000 0 20809046.079 -4001860.262 14235921.584 10 0 60510 74700.00000 0 19151268.645 -3074617.931 16597927.073 10 0 60510 75600.00000 0 17344218.593 -1873228.285 18638322.100 10 0 60510 76500.00000 0 15451062.121 -400364.617 20317592.681 10 0 60510 77400.00000 0 13535079.022 1328894.014 21603206.080 10 0 60510 78300.00000 0 11657106.192 3287439.269 22470234.924 10 0 60510 79200.00000 0 9873101.637 5437018.007 22901836.785 10 0 60510 80100.00000 0 8231929.404 7729589.472 22889580.477 10 0 60510 81000.00000 0 6773456.616 10109100.506 22433612.983 10 0 60510 81900.00000 0 5527040.958 12513606.864 21542663.630 10 0 60510 82800.00000 0 4510470.947 14877654.244 20233884.889 10 0 60510 83700.00000 0 3729402.723 17134821.718 18532531.999 10 0 60510 84600.00000 0 3177316.655 19220323.131 16471486.469 10 0 60510 85500.00000 0 2835995.568 21073559.081 14090631.410 99